Weather History for Lander, WY

Change the Weather History Date:

Tuesday, September 4, 2012

  Actual Average Record
Temperature  
Mean Temperature 70 °F 64 °F  
Max Temperature 85 °F 79 °F 94 °F (1995)
Min Temperature 55 °F 49 °F 30 °F (1894)
Degree Days  
Heating Degree Days 0 3  
Month to date heating degree days 0 11  
Since 1 July heating degree days 2 51  
Cooling Degree Days 5 2  
Month to date cooling degree days 19 9  
Year to date cooling degree days 762 454  
Growing Degree Days 22 (Base 50)    
Moisture  
Dew Point 23 °F    
Average Humidity 20    
Maximum Humidity 32    
Minimum Humidity 8    
Precipitation  
Precipitation 0.00 in 0.02 in 0.18 in (2008)
Month to date precipitation T 0.08  
Year to date precipitation 4.68 8.96  
Snow  
Snow 0.00 in 0.00 in - ()
Month to date snowfall 0.0 0.1  
Since 1 July snowfall 0.0 0.1  
Since 1 September snowfall 0.0 0.1  
Snow Depth 0.00 in    
Sea Level Pressure  
Sea Level Pressure 29.89 in    
Wind  
Wind Speed 11 mph (West)    
Max Wind Speed 27 mph    
Max Gust Speed 38 mph    
Visibility 10 miles    
Events      
T = Trace of Precipitation, MM = Missing Value Source: NWS Daily Summary

Daily Weather History Graph

Daily Weather History Graph

Search for Another Location

Airport:

Trip Planner

Search our weather history database for the weather conditions in past years. The results will help you decide how hot, cold, wet, or windy it might be!

Date:

Astronomy

Sep. 04, 2012 Rise Set
Actual Time 6:43 AM MDT 7:43 PM MDT
Civil Twilight 6:14 AM MDT 8:12 PM MDT
Nautical Twilight 5:39 AM MDT 8:46 PM MDT
Astronomical Twilight 5:03 AM MDT 9:22 PM MDT
Moon 9:30 PM MDT (9/4) 11:01 AM MDT (9/4)
Length of Visible Light 13h 57m
Length of Day
12h 59m
Waning Gibbous, 83% of the Moon is Illuminated
Sep 4
Waning Gibbous
Sep 8
Last Quarter
Sep 15
New
Sep 22
First Quarter
Sep 29
Full

Hourly Weather History & Observations

Time (MDT) Temp. Dew Point Humidity Pressure Visibility Wind Dir Wind Speed Gust Speed Precip Events Conditions
12:53 AM 60.1 °F 21.9 °F 23% 29.92 in 10.0 mi SW 6.9 mph - N/A   Clear
1:53 AM 60.1 °F 21.0 °F 22% 29.91 in 10.0 mi Calm Calm - N/A   Clear
2:53 AM 60.1 °F 21.0 °F 22% 29.90 in 10.0 mi Calm Calm - N/A   Clear
3:53 AM 64.0 °F 26.1 °F 24% 29.88 in 10.0 mi SW 10.4 mph - N/A   Clear
4:53 AM 60.1 °F 26.1 °F 27% 29.88 in 10.0 mi SW 10.4 mph - N/A   Clear
5:53 AM 64.0 °F 27.0 °F 25% 29.88 in 10.0 mi SW 13.8 mph - N/A   Clear
6:53 AM 64.9 °F 28.0 °F 25% 29.89 in 10.0 mi SW 12.7 mph - N/A   Clear
7:53 AM 63.0 °F 32.0 °F 31% 29.92 in 10.0 mi South 4.6 mph - N/A   Clear
8:53 AM 68.0 °F 34.0 °F 28% 29.91 in 10.0 mi Variable 3.5 mph - N/A   Clear
9:53 AM 77.0 °F 28.9 °F 17% 29.88 in 10.0 mi WNW 16.1 mph - N/A   Clear
10:53 AM 80.1 °F 24.1 °F 13% 29.88 in 10.0 mi WNW 9.2 mph 21.9 mph N/A   Clear
11:53 AM 82.0 °F 21.0 °F 10% 29.86 in 10.0 mi WNW 17.3 mph 24.2 mph N/A   Clear
12:53 PM 82.0 °F 19.0 °F 10% 29.86 in 10.0 mi WNW 17.3 mph 33.4 mph N/A   Clear
1:53 PM 84.0 °F 21.0 °F 10% 29.85 in 10.0 mi West 9.2 mph 32.2 mph N/A   Clear
2:53 PM 84.9 °F 18.0 °F 8% 29.82 in 10.0 mi WNW 26.5 mph 33.4 mph N/A   Clear
3:53 PM 84.0 °F 17.1 °F 8% 29.81 in 10.0 mi West 16.1 mph 27.6 mph N/A   Clear
4:53 PM 84.0 °F 19.0 °F 9% 29.82 in 10.0 mi West 17.3 mph 25.3 mph N/A   Clear
5:53 PM 82.0 °F 16.0 °F 8% 29.82 in 10.0 mi WNW 21.9 mph 27.6 mph N/A   Clear
6:53 PM 79.0 °F 16.0 °F 9% 29.84 in 10.0 mi West 20.7 mph 27.6 mph N/A   Clear
7:53 PM 73.9 °F 18.0 °F 12% 29.89 in 10.0 mi NNW 9.2 mph - N/A   Partly Cloudy
8:53 PM 66.0 °F 21.9 °F 19% 29.97 in 8.0 mi NNE 5.8 mph - N/A   Clear
9:53 PM 64.9 °F 23.0 °F 20% 29.98 in 8.0 mi WNW 4.6 mph - N/A   Clear
10:53 PM 61.0 °F 21.9 °F 22% 29.99 in 8.0 mi WSW 9.2 mph - N/A   Clear
11:53 PM 59.0 °F 23.0 °F 25% 30.00 in 8.0 mi WSW 8.1 mph - N/A   Clear